Time,TemperatureF,DewpointF,PressureIn,WindDirection,WindDirectionDegrees,WindSpeedMPH,WindSpeedGustMPH,Humidity,HourlyPrecipIn,Conditions,Clouds,dailyrainin,SoftwareType,DateUTC
2013-03-24 00:23:00,30.0,23.0,30.04,North,-999,-999.0,-999.0,74,-99.99,,,-99.99,,2013-03-24 04:23:00,
2013-03-24 00:33:00,30.0,23.0,30.04,North,-999,-999.0,-999.0,74,-99.99,,,-99.99,,2013-03-24 04:33:00,
2013-03-24 00:43:00,30.0,23.0,30.04,North,-999,-999.0,-999.0,74,-99.99,,,-99.99,,2013-03-24 04:43:00,
2013-03-24 01:32:00,30.0,23.0,30.01,North,-999,-999.0,-999.0,75,-99.99,,,-99.99,,2013-03-24 05:32:00,
2013-03-24 01:43:00,30.0,23.0,30.01,North,-999,-999.0,-999.0,75,-99.99,,,-99.99,,2013-03-24 05:43:00,
2013-03-24 02:22:00,28.0,23.0,30.02,North,-999,-999.0,-999.0,80,-99.99,,,-99.99,,2013-03-24 06:22:00,
2013-03-24 02:32:00,28.0,23.0,30.02,North,-999,-999.0,-999.0,80,-99.99,,,-99.99,,2013-03-24 06:32:00,
2013-03-24 02:42:00,28.0,23.0,30.02,North,-999,-999.0,-999.0,80,-99.99,,,-99.99,,2013-03-24 06:42:00,
2013-03-24 03:32:00,29.0,23.0,29.99,North,-999,-999.0,-999.0,79,-99.99,,,-99.99,,2013-03-24 07:32:00,
2013-03-24 03:42:00,29.0,23.0,29.99,North,-999,-999.0,-999.0,79,-99.99,,,-99.99,,2013-03-24 07:42:00,
2013-03-24 04:22:00,28.0,23.0,30.00,North,-999,-999.0,-999.0,83,-99.99,,,-99.99,,2013-03-24 08:22:00,
2013-03-24 04:32:00,28.0,23.0,30.00,North,-999,-999.0,-999.0,83,-99.99,,,-99.99,,2013-03-24 08:32:00,
2013-03-24 04:42:00,28.0,23.0,30.00,North,-999,-999.0,-999.0,83,-99.99,,,-99.99,,2013-03-24 08:42:00,
2013-03-24 05:22:00,27.0,24.0,29.98,North,-999,-999.0,-999.0,86,-99.99,,,-99.99,,2013-03-24 09:22:00,
2013-03-24 05:33:00,27.0,24.0,29.98,North,-999,-999.0,-999.0,86,-99.99,,,-99.99,,2013-03-24 09:33:00,
2013-03-24 05:43:00,27.0,24.0,29.98,North,-999,-999.0,-999.0,86,-99.99,,,-99.99,,2013-03-24 09:43:00,
2013-03-24 06:23:00,28.0,24.0,29.98,North,-999,-999.0,-999.0,85,-99.99,,,-99.99,,2013-03-24 10:23:00,
2013-03-24 06:33:00,28.0,24.0,29.98,North,-999,-999.0,-999.0,85,-99.99,,,-99.99,,2013-03-24 10:33:00,
2013-03-24 06:42:00,28.0,24.0,29.98,North,-999,-999.0,-999.0,85,-99.99,,,-99.99,,2013-03-24 10:42:00,
2013-03-24 07:33:00,28.0,25.0,29.98,North,-999,-999.0,-999.0,89,-99.99,,,-99.99,,2013-03-24 11:33:00,
2013-03-24 07:42:00,28.0,25.0,29.98,North,-999,-999.0,-999.0,89,-99.99,,,-99.99,,2013-03-24 11:42:00,
2013-03-24 08:23:00,28.0,25.0,29.97,North,-999,-999.0,-999.0,89,-99.99,,,-99.99,,2013-03-24 12:23:00,
2013-03-24 08:32:00,28.0,25.0,29.97,North,-999,-999.0,-999.0,89,-99.99,,,-99.99,,2013-03-24 12:32:00,
2013-03-24 08:42:00,28.0,25.0,29.97,North,-999,-999.0,-999.0,89,-99.99,,,-99.99,,2013-03-24 12:42:00,
2013-03-24 09:23:00,28.0,25.0,29.96,North,-999,-999.0,-999.0,87,-99.99,,,-99.99,,2013-03-24 13:23:00,
2013-03-24 09:32:00,28.0,25.0,29.96,North,-999,-999.0,-999.0,87,-99.99,,,-99.99,,2013-03-24 13:32:00,
2013-03-24 09:42:00,28.0,25.0,29.96,North,-999,-999.0,-999.0,87,-99.99,,,-99.99,,2013-03-24 13:42:00,
2013-03-24 10:22:00,30.0,26.0,29.93,North,-999,-999.0,-999.0,86,-99.99,,,-99.99,,2013-03-24 14:22:00,
2013-03-24 10:33:00,30.0,26.0,29.93,North,-999,-999.0,-999.0,86,-99.99,,,-99.99,,2013-03-24 14:33:00,
2013-03-24 10:42:00,30.0,26.0,29.93,North,-999,-999.0,-999.0,86,-99.99,,,-99.99,,2013-03-24 14:42:00,
2013-03-24 11:22:00,32.0,23.0,29.87,North,-999,-999.0,-999.0,67,-99.99,,,-99.99,,2013-03-24 15:22:00,
2013-03-24 11:33:00,32.0,23.0,29.87,North,-999,-999.0,-999.0,67,-99.99,,,-99.99,,2013-03-24 15:33:00,
2013-03-24 11:43:00,32.0,23.0,29.87,North,-999,-999.0,-999.0,67,-99.99,,,-99.99,,2013-03-24 15:43:00,
2013-03-24 12:33:00,33.0,20.0,29.84,North,-999,-999.0,-999.0,58,-99.99,,,-99.99,,2013-03-24 16:33:00,
2013-03-24 12:43:00,33.0,20.0,29.84,North,-999,-999.0,-999.0,58,-99.99,,,-99.99,,2013-03-24 16:43:00,
2013-03-24 13:23:00,34.0,20.0,29.81,North,-999,-999.0,-999.0,56,-99.99,,,-99.99,,2013-03-24 17:23:00,
2013-03-24 13:33:00,34.0,20.0,29.81,North,-999,-999.0,-999.0,56,-99.99,,,-99.99,,2013-03-24 17:33:00,
2013-03-24 13:42:00,34.0,20.0,29.81,North,-999,-999.0,-999.0,56,-99.99,,,-99.99,,2013-03-24 17:42:00,
2013-03-24 14:33:00,34.0,25.0,29.79,North,-999,-999.0,-999.0,69,-99.99,,,-99.99,,2013-03-24 18:33:00,
2013-03-24 14:43:00,34.0,25.0,29.79,North,-999,-999.0,-999.0,69,-99.99,,,-99.99,,2013-03-24 18:43:00,
2013-03-24 15:23:00,34.0,26.0,29.75,North,-999,-999.0,-999.0,70,-99.99,,,-99.99,,2013-03-24 19:23:00,
2013-03-24 15:32:00,34.0,26.0,29.75,North,-999,-999.0,-999.0,70,-99.99,,,-99.99,,2013-03-24 19:32:00,
2013-03-24 15:43:00,34.0,26.0,29.75,North,-999,-999.0,-999.0,70,-99.99,,,-99.99,,2013-03-24 19:43:00,
2013-03-24 16:32:00,35.0,22.0,29.72,North,-999,-999.0,-999.0,58,-99.99,,,-99.99,,2013-03-24 20:32:00,
2013-03-24 16:43:00,35.0,22.0,29.72,North,-999,-999.0,-999.0,58,-99.99,,,-99.99,,2013-03-24 20:43:00,
2013-03-24 17:23:00,35.0,20.0,29.68,North,-999,-999.0,-999.0,53,-99.99,,,-99.99,,2013-03-24 21:23:00,
2013-03-24 17:33:00,35.0,20.0,29.68,North,-999,-999.0,-999.0,53,-99.99,,,-99.99,,2013-03-24 21:33:00,
2013-03-24 17:43:00,35.0,20.0,29.68,North,-999,-999.0,-999.0,53,-99.99,,,-99.99,,2013-03-24 21:43:00,
2013-03-24 18:23:00,34.0,20.0,29.65,North,-999,-999.0,-999.0,57,-99.99,,,-99.99,,2013-03-24 22:23:00,
2013-03-24 18:33:00,34.0,20.0,29.65,North,-999,-999.0,-999.0,57,-99.99,,,-99.99,,2013-03-24 22:33:00,
2013-03-24 18:43:00,34.0,20.0,29.65,North,-999,-999.0,-999.0,57,-99.99,,,-99.99,,2013-03-24 22:43:00,
2013-03-24 19:23:00,33.0,23.0,29.63,North,-999,-999.0,-999.0,66,-99.99,,,-99.99,,2013-03-24 23:23:00,
2013-03-24 19:32:00,33.0,23.0,29.63,North,-999,-999.0,-999.0,66,-99.99,,,-99.99,,2013-03-24 23:32:00,
2013-03-24 19:42:00,33.0,23.0,29.63,North,-999,-999.0,-999.0,66,-99.99,,,-99.99,,2013-03-24 23:42:00,
2013-03-24 20:23:00,32.0,24.0,29.62,North,-999,-999.0,-999.0,71,-99.99,,,-99.99,,2013-03-25 00:23:00,
2013-03-24 20:32:00,32.0,24.0,29.62,North,-999,-999.0,-999.0,71,-99.99,,,-99.99,,2013-03-25 00:32:00,
2013-03-24 20:43:00,32.0,24.0,29.62,North,-999,-999.0,-999.0,71,-99.99,,,-99.99,,2013-03-25 00:43:00,
2013-03-24 21:32:00,33.0,26.0,29.61,North,-999,-999.0,-999.0,75,-99.99,,,-99.99,,2013-03-25 01:32:00,
2013-03-24 21:42:00,33.0,26.0,29.61,North,-999,-999.0,-999.0,75,-99.99,,,-99.99,,2013-03-25 01:42:00,
2013-03-24 22:23:00,33.0,25.0,29.58,North,-999,-999.0,-999.0,72,-99.99,,,-99.99,,2013-03-25 02:23:00,
2013-03-24 22:33:00,33.0,25.0,29.58,North,-999,-999.0,-999.0,72,-99.99,,,-99.99,,2013-03-25 02:33:00,
2013-03-24 22:43:00,33.0,25.0,29.58,North,-999,-999.0,-999.0,72,-99.99,,,-99.99,,2013-03-25 02:43:00,
2013-03-24 23:23:00,33.0,25.0,29.55,North,-999,-999.0,-999.0,71,-99.99,,,-99.99,,2013-03-25 03:23:00,
2013-03-24 23:34:00,33.0,25.0,29.55,North,-999,-999.0,-999.0,71,-99.99,,,-99.99,,2013-03-25 03:34:00,
2013-03-24 23:43:00,33.0,25.0,29.55,North,-999,-999.0,-999.0,71,-99.99,,,-99.99,,2013-03-25 03:43:00,